Home > Weather > Murmansk > Past weeks

Flag for Russia Weather for the Past 2 Weeks in Murmansk, Russia

Now
27 °F

Sunny.


Feels Like: 23 °F
Forecast: 25 / 30 °F
Wind: 3 mph from South

Location: Murmansk Airport

Current Time: Feb 14, 2016 at 12:03:53 PM

Latest Report: Feb 14, 2016 at 11:00 AM


Visibility: 10 mi

Pressure: 29.89 "Hg

Humidity: 80%

Dew point: 21 °F

Location of MurmanskLocation

Historic Weather in Murmansk — Graph

°F

Murmansk Temperature Yesterday

Maximum temperature yesterday: 30 °F (at 12:00 AM)
Minimum temperature yesterday: 25 °F (at 10:30 PM)
Average temperature yesterday: 28 °F

High & Low Weather Summary for the Past Weeks

 TemperatureHumidityPressure
High37 °F (Feb 8, 6:00 PM)93% (Jan 30, 9:00 PM)29.86 "Hg (Jan 30, 9:00 PM)
Low-9 °F (Feb 6, 11:00 PM)65% (Feb 9, 4:00 AM)28.65 "Hg (Jan 31, 7:00 AM)
Average24 °F87%29.22 "Hg
* Reported Jan 30 10:00 AM — Feb 14 10:30 AM, Murmansk, Weather by CustomWeather, © 2016

Note: Actual official high and low records may vary slightly from our data, if they occured in-between our weather recording intervals... More about our weather records

Advertising

Murmansk Weather History for the Previous 24 Hours

 ConditionsComfort  
Time TempWeatherWind HumidityBarometerVisibility
10:30 AM
Sun, Feb 14
28 °FPassing clouds.1 mph86%29.86 "HgN/A
10:00 AM28 °FPassing clouds.1 mph86%29.86 "HgN/A
9:30 AM28 °FPassing clouds.3 mph93%29.83 "HgN/A
9:00 AM30 °FSnow flurries. Passing clouds.3 mph93%29.83 "Hg3 mi
8:30 AM30 °FSnow flurries. Passing clouds.3 mph86%29.83 "Hg4 mi
8:00 AM28 °FPassing clouds.3 mph93%29.80 "HgN/A
7:30 AM27 °FPassing clouds.3 mph93%29.80 "HgN/A
7:00 AM28 °FPassing clouds.3 mph86%29.80 "HgN/A
6:30 AM27 °FPassing clouds.3 mph93%29.80 "HgN/A
6:00 AM28 °FPassing clouds.3 mph93%29.80 "HgN/A
5:30 AM30 °FPassing clouds.3 mph86%29.80 "HgN/A
5:00 AM30 °FPassing clouds.3 mph86%29.77 "HgN/A
4:00 AM30 °FPassing clouds.6 mph86%29.77 "HgN/A
3:30 AM30 °FPassing clouds.3 mph86%29.77 "HgN/A
3:00 AM28 °FSnow flurries. Passing clouds.6 mph86%29.77 "HgN/A
2:30 AM27 °FPassing clouds.3 mph93%29.77 "HgN/A
2:00 AM28 °FPassing clouds.3 mph86%29.77 "HgN/A
1:30 AM28 °FPassing clouds.3 mph86%29.77 "HgN/A
1:00 AM27 °FPassing clouds.3 mph93%29.77 "HgN/A
12:30 AM27 °FSnow flurries. Passing clouds.3 mph93%29.77 "Hg3 mi
12:00 AM25 °FClear.3 mph93%29.77 "Hg10 mi
11:30 PM
Sat, Feb 13
25 °FClear.No wind86%29.77 "Hg10 mi
11:00 PM25 °FPassing clouds.1 mph93%29.77 "HgN/A
10:30 PM25 °FPassing clouds.1 mph93%29.77 "HgN/A
10:00 PM28 °FSnow flurries. Passing clouds.3 mph86%29.77 "HgN/A
9:30 PM28 °FSnow flurries. Passing clouds.3 mph86%29.77 "HgN/A
9:00 PM28 °FSnow flurries. Passing clouds.1 mph86%29.77 "HgN/A
8:30 PM28 °FSnow flurries. Passing clouds.1 mph86%29.77 "HgN/A
8:00 PM28 °FSnow flurries. Passing clouds.1 mph86%29.77 "Hg4 mi
7:30 PM28 °FSnow flurries. Passing clouds.1 mph86%29.77 "Hg5 mi
7:00 PM27 °FPassing clouds.1 mph93%29.77 "HgN/A
6:30 PM27 °FPassing clouds.1 mph86%29.77 "HgN/A
6:00 PM27 °FPassing clouds.1 mph93%29.74 "HgN/A
5:30 PM27 °FPartly sunny.1 mph93%29.74 "HgN/A
5:00 PM27 °FPartly sunny.1 mph93%29.74 "HgN/A
4:30 PM28 °FSnow flurries. Partly sunny.1 mph86%29.74 "Hg4 mi
4:00 PM28 °FSnow flurries. Partly sunny.1 mph86%29.74 "Hg2 mi
3:30 PM28 °FScattered clouds.1 mph86%29.71 "HgN/A
3:00 PM28 °FScattered clouds.1 mph86%29.71 "HgN/A
2:00 PM28 °FScattered clouds.1 mph86%29.71 "HgN/A
1:30 PM28 °FScattered clouds.1 mph86%29.71 "HgN/A
1:00 PM28 °FScattered clouds.1 mph93%29.71 "HgN/A
12:30 PM28 °FScattered clouds.1 mph93%29.68 "HgN/A
12:00 PM28 °FScattered clouds.1 mph86%29.68 "HgN/A
Weather by CustomWeather, © 2016

See weather overviewHow to use our weather pages